Location: Arpaise
(41.0333°N, 14.7333°E)
Time: 00:47:47
(UTC+00:00)

Meteor 2-6 Rocket - Pass Details

Date: 05 July 2020
Orbit: 804 x 916 km, 81.3° (Epoch: 11 August)

Event Time Altitude Azimuth Distance (km) Brightness Sun altitude
Rises 23:29:22 0° 352° (N) 3,376 8.6 -26.1°
Reaches altitude 10° 23:31:48 10° 354° (N) 2,425 7.6 -26.0°
Maximum altitude 23:37:16 73° 80° (E) 849 4.1 -25.9°
Enters shadow 23:37:52 66° 127° (SE) 884 4.1 -25.9°
